{"data":{"norad_id":62383,"epoch":"2026-05-25T03:09:56.695680Z","epoch_age_seconds":62884,"freshness":"FRESH","line1":"1 62383U 24247G   26145.13190620  .00006878  00000+0  24638-3 0  9995","line2":"2 62383  44.9940  57.7919 0001579  83.2368 276.8696 15.29467568 79445","mean_motion":15.29467568,"eccentricity":0.0001579,"inclination_deg":44.994,"raan_deg":57.7919,"arg_perigee_deg":83.2368,"mean_anomaly_deg":276.8696,"bstar":0.00024638,"rev_number":7944,"period_min":94.15041090953,"perigee_km":476.32036228405,"apogee_km":478.48534176932,"semimajor_km":6855.5398520267,"source":"CELESTRAK","updated_at":"2026-05-25T13:38:02.945193Z"}}